Weather History for PAEG - June, 2013

Change the Weather History Date:

Friday, June 21, 2013

  Actual Average (PABN) Record (PABN)
Temperature  
Mean Temperature 60 °F -  
Max Temperature 66 °F 59 °F 75 °F (2004)
Min Temperature 53 °F 49 °F 33 °F (2000)
Degree Days  
Heating Degree Days 4    
Growing Degree Days 10 (Base 50)    
Moisture  
Dew Point 56 °F    
Average Humidity 87    
Maximum Humidity 93    
Minimum Humidity 73    
Precipitation  
Precipitation 0.22 in - - ()
Sea Level Pressure  
Sea Level Pressure 29.83 in    
Wind  
Wind Speed 2 mph (ESE)    
Max Wind Speed 7 mph    
Max Gust Speed -    
Visibility 9 miles    
Events Rain    
Averages and records for this station are not official NWS values.
T = Trace of Precipitation, MM = Missing Value Source: NWS Daily Summary

Daily Weather History Graph

Daily Weather History Graph

Search for Another Location

Airport or City:

Trip Planner

Search our weather history database for the weather conditions in past years. The results will help you decide how hot, cold, wet, or windy it might be!

Date:

Astronomy

Jun. 21, 2013 Rise Set
Actual Time 2:33 AM AKDT 12:19 AM AKDT
Civil Twilight Sun does not rise Sun does not rise
Nautical Twilight Sun does not rise Sun does not rise
Astronomical Twilight Sun does not rise Sun does not rise
Moon 9:36 PM AKDT (6/21) 2:11 AM AKDT (6/21)
Length of Visible Light 24h 00m
Length of Day
21h 45m
Waxing Gibbous, 96% of the Moon is Illuminated
Jun 21
Waxing Gibbous
Jun 23
Full
Jun 29
Last Quarter
Jul 7
New
Jul 15
First Quarter

Hourly Weather History & Observations

Time (AKDT) Temp. Dew Point Humidity Pressure Visibility Wind Dir Wind Speed Gust Speed Precip Events Conditions
12:53 AM 61.0 °F 54.0 °F 78% 29.84 in 10.0 mi Variable 3.5 mph - 0.00 in Rain Light Rain
1:53 AM 57.9 °F 53.1 °F 84% 29.83 in 10.0 mi Calm Calm - 0.00 in   Overcast
2:53 AM 55.0 °F 51.1 °F 86% 29.83 in 10.0 mi Calm Calm - N/A   Scattered Clouds
3:53 AM 55.0 °F 52.0 °F 89% 29.84 in 9.0 mi Calm Calm - 0.01 in Rain Light Rain
4:53 AM 55.9 °F 54.0 °F 93% 29.84 in 6.0 mi Calm Calm - 0.04 in Rain Light Rain
5:53 AM 57.9 °F 55.0 °F 90% 29.84 in 5.0 mi Calm Calm - 0.08 in Rain Light Rain
6:53 AM 59.0 °F 57.0 °F 93% 29.83 in 6.0 mi Calm Calm - 0.04 in Rain Light Rain
7:53 AM 60.1 °F 57.0 °F 90% 29.82 in 9.0 mi Calm Calm - 0.00 in Rain Light Rain
8:53 AM 61.0 °F 57.9 °F 90% 29.81 in 10.0 mi Calm Calm - 0.01 in Rain Light Rain
9:06 AM 60.8 °F 57.2 °F 88% 29.81 in 10.0 mi Calm Calm - 0.00 in   Overcast
9:19 AM 60.8 °F 57.2 °F 88% 29.81 in 10.0 mi Calm Calm - 0.00 in   Overcast
9:53 AM 62.1 °F 59.0 °F 90% 29.81 in 10.0 mi Calm Calm - 0.00 in   Overcast
10:53 AM 62.1 °F 57.9 °F 86% 29.80 in 10.0 mi SE 4.6 mph - 0.00 in Rain Light Rain
11:53 AM 61.0 °F 57.9 °F 90% 29.81 in 10.0 mi ESE 4.6 mph - 0.00 in Rain Light Rain
12:53 PM 62.1 °F 59.0 °F 90% 29.82 in 8.0 mi ESE 3.5 mph - 0.03 in Rain Light Rain
1:53 PM 62.1 °F 59.0 °F 90% 29.82 in 10.0 mi Calm Calm - 0.01 in Rain Light Rain
2:53 PM 62.1 °F 57.9 °F 86% 29.83 in 10.0 mi ESE 3.5 mph - 0.00 in   Overcast
3:53 PM 61.0 °F 57.0 °F 87% 29.84 in 10.0 mi SE 3.5 mph - 0.00 in   Overcast
4:53 PM 64.9 °F 59.0 °F 81% 29.84 in 10.0 mi ESE 6.9 mph - 0.00 in   Overcast
5:53 PM 64.0 °F 57.9 °F 80% 29.84 in 10.0 mi East 3.5 mph - N/A   Overcast
6:53 PM 66.9 °F 57.9 °F 73% 29.83 in 10.0 mi East 3.5 mph - N/A   Overcast
7:53 PM 64.0 °F 57.9 °F 80% 29.85 in 10.0 mi Calm Calm - N/A   Overcast
8:53 PM 64.0 °F 59.0 °F 84% 29.84 in 10.0 mi Calm Calm - N/A   Overcast
9:53 PM 63.0 °F 57.9 °F 84% 29.85 in 10.0 mi Calm Calm - N/A   Overcast
10:53 PM 57.9 °F 55.0 °F 90% 29.86 in 10.0 mi Calm Calm - N/A   Clear
11:53 PM 53.1 °F 51.1 °F 93% 29.88 in 10.0 mi SSE 3.5 mph - N/A   Clear